Regional Weather Roundup
Issued by NWS

Home | Current Version | Previous Version | Graphics & Text | Print | Product List | Glossary On
Versions: 1 2 3 4 5 6 7 8 9 10 11 12 13 14 15 16 17 18 19 20 21 22 23 24 25 26 27 28 29 30 31 32 33 34 35 36 37 38 39 40 41 42 43 44 45 46 47 48 49 50
000
ASUS43 KOAX 240910
RWRNE

WEATHER ROUNDUP FOR NEBRASKA
NATIONAL WEATHER SERVICE OMAHA NE
400 AM CDT THU APR 24 2014

NOTES: SATELLITE DATA IS BEING USED TO AUGMENT CLOUD COVER ABOVE
       12000 FEET.
       "FAIR" INDICATES FEW OR NO CLOUDS BELOW 12,000 FEET WITH NO
       SIGNIFICANT WEATHER AND/OR OBSTRUCTIONS TO VISIBILITY.

  * THESE STATIONS DO NOT REPORT WEATHER SUCH AS RAIN...SNOW OR FOG.

NEZ001>004-019>022-054>056-241000-
NEBRASKA PANHANDLE

CITY           SKY/WX    TMP DP  RH WIND       PRES   REMARKS
SCOTTSBLUFF    MOCLDY    40  33  76 W12       29.92R WCI  33
ALLIANCE       MOCLDY    40  31  70 NW5       29.87F
CHADRON        PTCLDY    42  32  67 W8        29.88S
KIMBALL        CLOUDY    38  30  71 W9        29.92R WCI  32
SIDNEY         MOCLDY    41  29  62 NW10      29.90R
$$

NEZ057>060-069>072-079>082-241000-
SOUTHWEST NEBRASKA

CITY           SKY/WX    TMP DP  RH WIND       PRES   REMARKS
NORTH PLATTE   MOCLDY    52  35  52 N16G24    29.78S
IMPERIAL       MOCLDY    50  34  54 N16       29.82R
LEXINGTON      CLOUDY    54  41  62 N12       29.73F
MCCOOK         CLOUDY    52  36  54 N6        29.76R
$$

NEZ005>010-023>029-035>040-094-241000-
NORTH CENTRAL NEBRASKA

CITY           SKY/WX    TMP DP  RH WIND       PRES   REMARKS
VALENTINE      CLOUDY    49  34  56 NW12      29.78S
BROKEN BOW     CLOUDY    52  35  52 N16       29.73F
ORD            CLOUDY    50  42  74 NW13      29.71F
$$

NEZ041-046>049-061>064-073>077-083>087-241000-
SOUTH CENTRAL NEBRASKA

CITY           SKY/WX    TMP DP  RH WIND       PRES   REMARKS
GRAND ISLAND   LGT RAIN  51  47  86 N15G24    29.70R
HASTINGS       LGT RAIN  51  46  83 N22G33    29.69R
KEARNEY *      CLOUDY    50  46  87 NW7       29.72S
YORK           RAIN      52  52 100 W5        29.66R
$$

NEZ011>018-030>034-042>045-241000-
NORTHEAST NEBRASKA

CITY           SKY/WX    TMP DP  RH WIND       PRES   REMARKS
NORFOLK        RAIN      53  50  89 N8        29.66F
COLUMBUS *     CLOUDY    52  45  76 NW15      29.68R
TEKAMAH        CLOUDY    50  45  83 CALM      29.66R
$$

NEZ050>053-065>068-078-088>093-241000-
SOUTHEAST NEBRASKA

CITY           SKY/WX    TMP DP  RH WIND       PRES   REMARKS
LINCOLN        LGT RAIN  51  48  89 CALM      29.63F FOG
OMAHA EPPLEY   RAIN      50  45  83 NE7       29.65R
FALLS CITY     LGT RAIN  62  51  67 SE8       29.60S
$$

NEZ044-045-051>053-067-241000-
OMAHA AREA

CITY           SKY/WX    TMP DP  RH WIND       PRES   REMARKS
OMAHA EPPLEY   RAIN      50  45  83 NE7       29.65R
OFFUTT AFB     LGT RAIN  50  50  99 N6        29.63R
$$



USA.gov is the U.S. government's official web portal to all federal, state and local government web resources and services.